Flag for Greece Weather past 2 weeks in Iráklion, Crete, Greece

Now
57 °F

Light rain. Partly cloudy.


Feels Like: 55 °F
Forecast: 48 / 61 °F
Wind: 10 mph from West

Location: Heraklion Airport

Current Time: Dec 27, 2014 at 5:55:28 PM

Latest Report: Dec 27, 2014 at 5:20 PM


Visibility: N/A

Pressure: 29.83 "Hg

Humidity: 77%

Dew point: 50 °F

Location of IráklionLocation

Historic Weather in Iráklion — Graph

°F

Iráklion temperature yesterday

Maximum temperature yesterday: 64 °F (at 12:50 PM)
Minimum temperature yesterday: 52 °F (at 12:20 AM)
Average temperature yesterday: 58 °F

Past Weeks' High & Low Weather Summary

 TemperatureHumidityPressure
High68 °F (Dec 17, 1:50 PM)94% (Dec 12, 8:50 PM)30.33 "Hg (Dec 12, 8:50 PM)
Low48 °F (Dec 23, 4:50 AM)52% (Dec 18, 10:50 AM)29.77 "Hg (Dec 12, 4:20 PM)
Average58 °F75%30.14 "Hg
* Reported Dec 12 4:20 PM — Dec 27 4:50 PM, Iráklion, Weather by CustomWeather, © 2014

Note: Actual official high and low records may vary slightly from our data, if they occured in-between our weather recording intervals... More about our weather records

Advertising

Iráklion weather history for previous 24 hours

 ConditionsComfort  
Time TempWeatherWind HumidityBarometerVisibility
4:50 PM
Dec 27
57 °FLight rain. Broken clouds.18 mph77%29.83 "HgN/A
4:20 PM61 °FLight rain. Broken clouds.16 mph72%29.80 "HgN/A
3:50 PM61 °FBroken clouds.14 mph72%29.80 "HgN/A
3:20 PM63 °FLight rain. Broken clouds.7 mph73%29.83 "HgN/A
2:50 PM63 °FBroken clouds.3 mph73%29.83 "HgN/A
2:20 PM61 °FBroken clouds.6 mph77%29.80 "HgN/A
1:50 PM61 °FBroken clouds.5 mph77%29.80 "HgN/A
1:20 PM63 °FBroken clouds.No wind68%29.83 "HgN/A
12:50 PM63 °FBroken clouds.5 mph68%29.83 "HgN/A
12:20 PM61 °FPartly sunny.7 mph72%29.83 "HgN/A
11:50 AM61 °FPartly sunny.7 mph72%29.83 "HgN/A
11:20 AM61 °FPartly sunny.7 mph72%29.86 "HgN/A
10:50 AM61 °FPartly sunny.3 mph72%29.86 "HgN/A
10:20 AM61 °FBroken clouds.12 mph68%29.86 "HgN/A
9:50 AM61 °FBroken clouds.12 mph68%29.86 "HgN/A
9:20 AM59 °FBroken clouds.9 mph72%29.86 "HgN/A
8:50 AM59 °FScattered clouds.8 mph72%29.86 "HgN/A
8:20 AM55 °FPassing clouds.9 mph77%29.86 "HgN/A
7:50 AM55 °FPassing clouds.7 mph72%29.86 "HgN/A
7:20 AM55 °FPassing clouds.12 mph67%29.83 "HgN/A
6:50 AM55 °FPassing clouds.12 mph67%29.83 "HgN/A
6:20 AM55 °FPassing clouds.10 mph67%29.83 "HgN/A
4:50 AM55 °FPassing clouds.5 mph67%29.83 "HgN/A
4:20 AM59 °FPassing clouds.8 mph55%29.83 "HgN/A
3:50 AM59 °FPassing clouds.8 mph55%29.83 "HgN/A
3:20 AM59 °FPassing clouds.6 mph55%29.86 "HgN/A
2:50 AM59 °FPassing clouds.6 mph55%29.86 "HgN/A
2:20 AM59 °FPassing clouds.10 mph55%29.86 "HgN/A
1:50 AM59 °FPassing clouds.13 mph55%29.86 "HgN/A
1:20 AM59 °FPassing clouds.15 mph55%29.89 "HgN/A
12:50 AM59 °FPassing clouds.15 mph55%29.89 "HgN/A
12:20 AM55 °FPassing clouds.12 mph67%29.89 "HgN/A
11:50 PM
Dec 26
55 °FPassing clouds.12 mph67%29.89 "HgN/A
11:20 PM55 °FPassing clouds.10 mph67%29.92 "HgN/A
10:50 PM55 °FPassing clouds.10 mph67%29.92 "HgN/A
10:20 PM55 °FPassing clouds.10 mph72%29.92 "HgN/A
9:50 PM55 °FPassing clouds.10 mph72%29.92 "HgN/A
9:20 PM55 °FPassing clouds.8 mph67%29.95 "HgN/A
8:50 PM55 °FPassing clouds.8 mph67%29.95 "HgN/A
8:20 PM54 °FPassing clouds.3 mph77%29.95 "HgN/A
7:50 PM54 °FPassing clouds.3 mph77%29.95 "HgN/A
7:20 PM57 °FPassing clouds.3 mph72%29.95 "HgN/A
6:50 PM57 °FPassing clouds.3 mph72%29.95 "HgN/A
6:20 PM57 °FPassing clouds.3 mph82%29.95 "HgN/A
5:50 PM57 °FPassing clouds.3 mph82%29.95 "HgN/A
5:20 PM61 °FPassing clouds.3 mph83%29.95 "HgN/A
Weather by CustomWeather, © 2014

See weather overviewHow to use our weather pages